Regional Weather Roundup
Issued by NWS

Home | Current Version | Previous Version | Graphics & Text | Print | Product List | Glossary On
Versions: 1 2 3 4 5 6 7 8 9 10 11 12 13 14 15 16 17 18 19 20 21 22 23 24 25 26 27 28 29 30 31 32 33 34 35 36 37 38 39 40 41 42 43 44 45 46 47 48 49 50
000
ASUS45 KBOI 010410
RWRID
WEATHER ROUNDUP FOR IDAHO
NATIONAL WEATHER SERVICE BOISE ID
1000 PM MDT SUN AUG 31 2014

NOTE: "FAIR" INDICATES FEW OR NO CLOUDS BELOW 12000 FEET
WITH NO SIGNIFICANT WEATHER AND/OR OBSTRUCTIONS TO VISIBILITY

IDZ012-014-010500-
SOUTHWEST IDAHO


CITY           SKY/WX    TMP DP  RH WIND       PRES   REMARKS
BOISE          CLEAR     64  39  39 S3        29.96S
CALDWELL       CLEAR     64  39  39 SW5       29.98R
MOUNTAIN HOME  CLEAR     63  41  45 NW9       29.97R
$$

IDZ016-017-010500-
SOUTHCENTRAL IDAHO


CITY           SKY/WX    TMP DP  RH WIND       PRES   REMARKS
BURLEY         CLEAR     53  45  74 SW6       30.01R
JEROME         CLEAR     60  39  45 SW6       30.01R
TWIN FALLS     CLEAR     59  41  51 SW8       30.02R
$$

IDZ019>023-010500-
SOUTHEAST IDAHO


CITY           SKY/WX    TMP DP  RH WIND       PRES   REMARKS
IDAHO FALLS    CLEAR     59  38  45 S13       30.01S
POCATELLO      CLEAR     52  33  48 S8        30.02R
REXBURG        CLEAR     57  38  48 S9        30.01R
$$

IDZ006-010-011-018-031-032-010500-
CENTRAL IDAHO MOUNTAINS


CITY           SKY/WX    TMP DP  RH WIND       PRES   REMARKS
MCCALL         PTCLDY    49  36  61 E5        30.04S
HAILEY         CLEAR     54  39  58 CALM      30.03R
STANLEY          N/A     43  31  62 SW5       30.11R
SALMON         MOCLDY    63  39  42 N7        29.95R
CHALLIS        PTCLDY    62  33  33 W6        29.99R
$$

IDZ002-004-006-007-026-010500-
NORTHERN IDAHO


CITY           SKY/WX    TMP DP  RH WIND       PRES   REMARKS
LEWISTON       PTCLDY    68  39  34 W12       29.96R
LOWELL           N/A     59  50  72 CALM      29.99R
COEUR D`ALENE  CLOUDY    61  37  41 S8        29.95S
MULLAN PASS    MOCLDY    44  37  76 W5        30.06R
$$



USA.gov is the U.S. government's official web portal to all federal, state and local government web resources and services.